Sitka, Alaska, United States (99835)
Lat: 57.05N, Lon: 135.33W
Wx Zone: AKZ023
Local Info
Past Weather Observations for Monday, July 27, 2015

NOTE: This archive is for the closest National Weather Service station to Sitka. Information may differ from the station used for current weather conditions.

Click here for Long-term Archive

Time Weather Temperature Dewpoint Humidity Pressure Winds Precip Visibility
23:53
Overcast
Light Rain
55°F / 13°C 54°F / 12°C 94% 29.83 in
(1010 mb)
S 11.5 mph
(S 19 kph)
0.02 in
(0.51 mm)
2 1/2SM
23:50
Overcast
Rain
55°F / 13°C 54°F / 12°C 94% 29.83 in
(1010 mb)
S 12.7 mph
(S 20 kph)
0.02 in
(0.51 mm)
2 1/2SM
22:53
Overcast
Light Rain
55°F / 13°C 54°F / 12°C 94% 29.83 in
(1010 mb)
S 11.5 mph
(S 19 kph)
0.01 in
(0.25 mm)
5SM
22:43
Overcast
Light Rain
55°F / 13°C 54°F / 12°C 94% 29.83 in
(1010 mb)
S 11.5 mph
(S 19 kph)
0.01 in
(0.25 mm)
5SM
22:22
Overcast
Light Rain
55°F / 13°C 54°F / 12°C 94% 29.83 in
(1010 mb)
S 11.5 mph
(S 19 kph)
0.01 in
(0.25 mm)
9SM
22:07
Overcast
Light Rain
55°F / 13°C 54°F / 12°C 94% 29.83 in
(1010 mb)
S 11.5 mph
(S 19 kph)
0.01 in
(0.25 mm)
6SM
22:00
Overcast
Light Rain
55°F / 13°C 54°F / 12°C 94% 29.83 in
(1010 mb)
S 12.7 mph
(S 20 kph)
0.00 in
(0.00 mm)
2 1/2SM
21:53
Overcast
Rain
57°F / 14°C 54°F / 12°C 88% 29.83 in
(1010 mb)
S 11.5 mph
(S 19 kph)
0.09 in
(2.29 mm)
1 3/4SM
21:49
Overcast
Rain
57°F / 14°C 55°F / 13°C 94% 29.83 in
(1010 mb)
S 12.7 mph
(S 20 kph)
0.08 in
(2.03 mm)
1 3/4SM
21:41
Overcast
Rain
57°F / 14°C 55°F / 13°C 94% 29.83 in
(1010 mb)
SSE 3.5 mph
(SSE 6 kph)
0.04 in
(1.02 mm)
2SM
21:17
Overcast
Light Rain
55°F / 13°C 54°F / 12°C 94% 29.83 in
(1010 mb)
SE 4.6 mph
(SE 7 kph)
0.01 in
(0.25 mm)
10SM
21:07
Overcast
Light Rain
57°F / 14°C 55°F / 13°C 94% 29.83 in
(1010 mb)
SSE 8.1 mph
(SSE 13 kph)
0.01 in
(0.25 mm)
5SM
20:53
Overcast
Light Rain
57°F / 14°C 55°F / 13°C 94% 29.83 in
(1010 mb)
S 11.5 mph
(S 19 kph)
0.05 in
(1.27 mm)
8SM
20:27
Overcast
Light Rain
57°F / 14°C 55°F / 13°C 94% 29.8 in
(1009 mb)
S 8.1 mph
(S 13 kph)
0.03 in
(0.76 mm)
2 1/2SM
20:20
Overcast
Light Rain
57°F / 14°C 55°F / 13°C 94% 29.8 in
(1009 mb)
SSE 4.6 mph
(SSE 7 kph)
0.03 in
(0.76 mm)
3SM
20:10
Overcast
Light Rain
57°F / 14°C 55°F / 13°C 94% 29.8 in
(1009 mb)
SSE 5.8 mph
(SSE 9 kph)
0.02 in
(0.51 mm)
2 1/2SM
20:03
Overcast
Light Rain
57°F / 14°C 55°F / 13°C 94% 29.8 in
(1009 mb)
SSE 5.8 mph
(SSE 9 kph)
0.02 in
(0.51 mm)
1 1/2SM
19:53
Overcast
Light Rain
57°F / 14°C 55°F / 13°C 94% 29.8 in
(1009 mb)
SSE 5.8 mph
(SSE 9 kph)
0.03 in
(0.76 mm)
2 1/2SM
19:27
Overcast
Light Rain
57°F / 14°C 55°F / 13°C 94% 29.8 in
(1009 mb)
S 5.8 mph
(S 9 kph)
0.02 in
(0.51 mm)
4SM
19:20
Overcast
Light Rain
57°F / 14°C 55°F / 13°C 94% 29.8 in
(1009 mb)
SE 5.8 mph
(SE 9 kph)
0.02 in
(0.51 mm)
2 1/2SM
19:08
Overcast
Light Rain
57°F / 14°C 55°F / 13°C 94% 29.8 in
(1009 mb)
S 6.9 mph
(S 11 kph)
0.01 in
(0.25 mm)
1 3/4SM
19:00
Overcast
Light Rain
57°F / 14°C 55°F / 13°C 94% 29.8 in
(1009 mb)
S 8.1 mph
(S 13 kph)
0.01 in
(0.25 mm)
4SM
18:53
Overcast
Light Rain
57°F / 14°C 55°F / 13°C 94% 29.8 in
(1009 mb)
S 6.9 mph
(S 11 kph)
0.03 in
(0.76 mm)
6SM
18:32
Overcast
Light Rain
57°F / 14°C 55°F / 13°C 94% 29.8 in
(1009 mb)
SSE 6.9 mph
(SSE 11 kph)
0.03 in
(0.76 mm)
4SM
18:22
Overcast
Rain
57°F / 14°C 55°F / 13°C 94% 29.8 in
(1009 mb)
S 5.8 mph
(S 9 kph)
0.02 in
(0.51 mm)
2 1/2SM
17:53
Overcast
Light Rain
57°F / 14°C 55°F / 13°C 94% 29.8 in
(1009 mb)
S 5.8 mph
(S 9 kph)
0.08 in
(2.03 mm)
4SM
17:25
Overcast
Rain
57°F / 14°C 55°F / 13°C 94% 29.83 in
(1010 mb)
S 4.6 mph
(S 7 kph)
0.05 in
(1.27 mm)
3SM
17:08
Overcast
Light Rain
57°F / 14°C 54°F / 12°C 88% 29.83 in
(1010 mb)
S 8.1 mph
(S 13 kph)
0.03 in
(0.76 mm)
3SM
16:53
Overcast
Light Rain
57°F / 14°C 55°F / 13°C 94% 29.83 in
(1010 mb)
S 8.1 mph
(S 13 kph)
0.07 in
(1.78 mm)
1 3/4SM
16:51
Overcast
Light Rain
57°F / 14°C 55°F / 13°C 94% 29.83 in
(1010 mb)
S 6.9 mph
(S 11 kph)
0.06 in
(1.52 mm)
1 3/4SM
16:41
Overcast
Light Rain
57°F / 14°C 55°F / 13°C 94% 29.83 in
(1010 mb)
SSE 6.9 mph
(SSE 11 kph)
0.05 in
(1.27 mm)
3SM
16:33
Overcast
Rain
57°F / 14°C 55°F / 13°C 94% 29.83 in
(1010 mb)
SSE 8.1 mph
(SSE 13 kph)
0.05 in
(1.27 mm)
1 1/4SM
16:29
Overcast
Rain
57°F / 14°C 55°F / 13°C 94% 29.83 in
(1010 mb)
SW 9.2 mph
(SW 15 kph)
0.04 in
(1.02 mm)
1 1/2SM
16:23
Overcast
Rain
57°F / 14°C 55°F / 13°C 94% 29.83 in
(1010 mb)
SW 9.2 mph
(SW 15 kph)
0.03 in
(0.76 mm)
1 3/4SM
16:00
Overcast
Light Rain
57°F / 14°C 55°F / 13°C 94% 29.83 in
(1010 mb)
SE 3.5 mph
(SE 6 kph)
0.01 in
(0.25 mm)
4SM
15:53
Overcast
Light Rain
57°F / 14°C 54°F / 12°C 88% 29.83 in
(1010 mb)
Variable 5.8 mph
(Variable 9 kph)
0.05 in
(1.27 mm)
4SM
15:41
Overcast
Light Rain
57°F / 14°C 55°F / 13°C 94% 29.83 in
(1010 mb)
S 4.6 mph
(S 7 kph)
0.05 in
(1.27 mm)
3SM
15:34
Overcast
Light Rain
57°F / 14°C 55°F / 13°C 94% 29.83 in
(1010 mb)
SSE 8.1 mph
(SSE 13 kph)
0.04 in
(1.02 mm)
2SM
15:24
Overcast
Rain
57°F / 14°C 55°F / 13°C 94% 29.83 in
(1010 mb)
SSE 5.8 mph
(SSE 9 kph)
0.03 in
(0.76 mm)
2SM
15:00
Overcast
Light Rain
57°F / 14°C 57°F / 14°C 100% 29.83 in
(1010 mb)
S 12.7 mph
(S 20 kph)
0.01 in
(0.25 mm)
3SM
14:53
Overcast
Light Rain
57°F / 14°C 57°F / 14°C 100% 29.86 in
(1011 mb)
S 9.2 mph
(S 15 kph)
0.09 in
(2.29 mm)
2 1/2SM
14:37
Overcast
Rain
57°F / 14°C 57°F / 14°C 100% 29.86 in
(1011 mb)
S 12.7 mph
(S 20 kph)
0.07 in
(1.78 mm)
2 1/2SM
14:27
Overcast
Light Rain
57°F / 14°C 57°F / 14°C 100% 29.86 in
(1011 mb)
S 11.5 mph
(S 19 kph)
0.05 in
(1.27 mm)
2 1/2SM
14:07
Overcast
Rain
57°F / 14°C 57°F / 14°C 100% 29.86 in
(1011 mb)
S 13.8 mph
(S 22 kph)
0.02 in
(0.51 mm)
3SM
13:53
Overcast
Rain
57°F / 14°C 57°F / 14°C 100% 29.86 in
(1011 mb)
S 12.7 mph
(S 20 kph)
0.13 in
(3.30 mm)
2SM
13:45
Overcast
Rain
57°F / 14°C 55°F / 13°C 94% 29.86 in
(1011 mb)
S 12.7 mph
(S 20 kph)
0.11 in
(2.79 mm)
1 3/4SM
13:40
Overcast
Rain
57°F / 14°C 55°F / 13°C 94% 29.86 in
(1011 mb)
SSE 12.7 mph
(SSE 20 kph)
0.09 in
(2.29 mm)
2SM
13:30
Overcast
Rain
57°F / 14°C 55°F / 13°C 94% 29.86 in
(1011 mb)
SSE 5.8 mph
(SSE 9 kph)
0.07 in
(1.78 mm)
2 1/2SM
12:53
Overcast
Rain
57°F / 14°C 55°F / 13°C 94% 29.86 in
(1011 mb)
SE 5.8 mph
(SE 9 kph)
0.10 in
(2.54 mm)
3SM
12:39
Overcast
Rain
57°F / 14°C 55°F / 13°C 94% 29.86 in
(1011 mb)
E 4.6 mph
(E 7 kph)
0.08 in
(2.03 mm)
4SM
12:25
Overcast
Rain
57°F / 14°C 55°F / 13°C 94% 29.86 in
(1011 mb)
ESE 5.8 mph
(ESE 9 kph)
0.05 in
(1.27 mm)
4SM
12:02
Overcast
Rain
55°F / 13°C 54°F / 12°C 94% 29.86 in
(1011 mb)
SE 5.8 mph
(SE 9 kph)
0.02 in
(0.51 mm)
4SM
11:53
Overcast
Rain
55°F / 13°C 55°F / 13°C 100% 29.86 in
(1011 mb)
SE 5.8 mph
(SE 9 kph)
0.11 in
(2.79 mm)
3SM
11:44
Overcast
Rain
55°F / 13°C 55°F / 13°C 100% 29.86 in
(1011 mb)
S 8.1 mph
(S 13 kph)
0.10 in
(2.54 mm)
2 1/2SM
10:53
Overcast
Rain
55°F / 13°C 54°F / 12°C 94% 29.86 in
(1011 mb)
ESE 3.5 mph
(ESE 6 kph)
0.11 in
(2.79 mm)
4SM
10:01
Overcast
Rain
55°F / 13°C 54°F / 12°C 94% 29.89 in
(1012 mb)
SSE 8.1 mph
(SSE 13 kph)
0.02 in
(0.51 mm)
3SM
09:53
Overcast
Rain
55°F / 13°C 54°F / 12°C 94% 29.89 in
(1012 mb)
S 11.5 mph
(S 19 kph)
0.08 in
(2.03 mm)
2 1/2SM
09:21
Overcast
Rain
55°F / 13°C 54°F / 12°C 94% 29.89 in
(1012 mb)
SSE 10.4 mph
(SSE 17 kph)
0.03 in
(0.76 mm)
2SM
08:53
Overcast
Light Rain
55°F / 13°C 54°F / 12°C 94% 29.89 in
(1012 mb)
S 9.2 mph
(S 15 kph)
0.07 in
(1.78 mm)
3SM
08:10
Overcast
Light Rain
55°F / 13°C 54°F / 12°C 94% 29.89 in
(1012 mb)
S 10.4 mph
(S 17 kph)
0.02 in
(0.51 mm)
2SM
07:53
Overcast
Light Rain
55°F / 13°C 54°F / 12°C 94% 29.89 in
(1012 mb)
S 9.2 mph
(S 15 kph)
0.05 in
(1.27 mm)
4SM
06:53
Overcast
Light Rain
55°F / 13°C 54°F / 12°C 94% 29.89 in
(1012 mb)
S 6.9 mph
(S 11 kph)
0.02 in
(0.51 mm)
3SM
05:53
Overcast
Light Rain
55°F / 13°C 54°F / 12°C 94% 29.89 in
(1012 mb)
S 11.5 mph
(S 19 kph)
0.09 in
(2.29 mm)
8SM
05:42
Overcast
Light Rain
55°F / 13°C 54°F / 12°C 94% 29.89 in
(1012 mb)
S 10.4 mph
(S 17 kph)
0.09 in
(2.29 mm)
2 1/2SM
05:34
Overcast
Light Rain
55°F / 13°C 54°F / 12°C 94% 29.89 in
(1012 mb)
S 9.2 mph
(S 15 kph)
0.08 in
(2.03 mm)
2SM
04:53
Overcast
Light Rain
55°F / 13°C 54°F / 12°C 94% 29.89 in
(1012 mb)
E 3.5 mph
(E 6 kph)
0.08 in
(2.03 mm)
1 1/2SM
04:43
Overcast
Light Rain
55°F / 13°C 54°F / 12°C 94% 29.89 in
(1012 mb)
SSE 5.8 mph
(SSE 9 kph)
0.07 in
(1.78 mm)
1 3/4SM
04:02
Overcast
Light Rain
55°F / 13°C 55°F / 13°C 100% 29.89 in
(1012 mb)
S 11.5 mph
(S 19 kph)
0.01 in
(0.25 mm)
2 1/2SM
03:53
Overcast
Light Rain
55°F / 13°C 54°F / 12°C 94% 29.89 in
(1012 mb)
S 10.4 mph
(S 17 kph)
0.09 in
(2.29 mm)
4SM
03:50
Overcast
Light Rain
55°F / 13°C 54°F / 12°C 94% 29.89 in
(1012 mb)
S 9.2 mph
(S 15 kph)
0.09 in
(2.29 mm)
4SM
03:29
Overcast
Rain
55°F / 13°C 54°F / 12°C 94% 29.89 in
(1012 mb)
SE 9.2 mph
(SE 15 kph)
0.07 in
(1.78 mm)
2SM
03:20
Overcast
Light Rain
55°F / 13°C 54°F / 12°C 94% 29.89 in
(1012 mb)
SE 8.1 mph
(SE 13 kph)
0.05 in
(1.27 mm)
2 1/2SM
03:09
Overcast
Rain
55°F / 13°C 54°F / 12°C 94% 29.89 in
(1012 mb)
ESE 6.9 mph
(ESE 11 kph)
0.04 in
(1.02 mm)
1 3/4SM
02:53
Overcast
Light Rain
55°F / 13°C 54°F / 12°C 94% 29.89 in
(1012 mb)
ESE 8.1 mph
(ESE 13 kph)
0.06 in
(1.52 mm)
2SM
02:50
Overcast
Light Rain
55°F / 13°C 54°F / 12°C 94% 29.89 in
(1012 mb)
ESE 6.9 mph
(ESE 11 kph)
0.05 in
(1.27 mm)
2 1/2SM
02:33
Overcast
Light Rain
55°F / 13°C 54°F / 12°C 94% 29.89 in
(1012 mb)
E 6.9 mph
(E 11 kph)
0.03 in
(0.76 mm)
3SM
02:16
Overcast
Light Rain
55°F / 13°C 54°F / 12°C 94% 29.89 in
(1012 mb)
SE 5.8 mph
(SE 9 kph)
0.02 in
(0.51 mm)
3SM
01:53
Overcast
Light Rain
55°F / 13°C 54°F / 12°C 94% 29.89 in
(1012 mb)
E 4.6 mph
(E 7 kph)
0.05 in
(1.27 mm)
4SM
01:18
Overcast
Light Rain
55°F / 13°C 54°F / 12°C 94% 29.92 in
(1013 mb)
SSE 5.8 mph
(SSE 9 kph)
0.03 in
(0.76 mm)
5SM
00:53
Overcast
Light Rain
55°F / 13°C 54°F / 12°C 94% 29.92 in
(1013 mb)
S 8.1 mph
(S 13 kph)
0.06 in
(1.52 mm)
3SM
00:28
Overcast
Light Rain
55°F / 13°C 54°F / 12°C 94% 29.92 in
(1013 mb)
SE 4.6 mph
(SE 7 kph)
0.04 in
(1.02 mm)
3SM
Time Weather Temperature Dewpoint Humidity Pressure Winds Precip Visibility


Weather for websites

WeatherForYou.com, LLC is not responsible for any damages or problems caused by this service. Current weather conditions are obtained from the closest station including government and personal stations which may have varying degrees of accuracy. Weather forecasts are derived from the NOAA NDFD. Like all things, this site belongs to Jesus Christ... He just trusts us to maintain it. If you have any questions or comments email webmaster@weatherforyou.com

Copyright © 2015, WeatherForYou.com LLC. All rights reserved.